Wind_Speed
5 5 5 6 8 10 8 5 4 4 5 6 9 8 10 14 8 1 2 1 2 2 2 2 1 4 5 4 9 13 14 11 8 5 3 9 21 27 28 30 29 27 27 29 31 28 26 24 23 23 21 21 20 19 17 16 16 15 15 15 15 16 16 16 16 16 15 14 14 14 14 13 13 12 12 11 11 10 10 9 9 9 8 8 8 9 10 11 12 12 11 11 12 12 11 11 11
6 8 8 9 9 8 4 4 5 4 6 7 8 10 11 11 5 3 6 6 1 7 3 3 0 2 4 8 4 10 13 14 14 11 9 18 24 24 27 28 28 28 27 31 31 28 26 25 24 23 22 22 20 19 18 16 16 15 16 16 16 16 16 15 16 16 15 14 14 14 14 13 13 12 12 11 10 10 9 9 8 8 8 8 8 9 9 9 10 10 9 10 11 11 10 11 11
9 12 10 9 8 6 4 4 6 6 7 8 8 11 12 10 5 4 6 3 8 9 1 3 1 2 2 6 5 9 10 12 15 14 11 19 18 19 26 25 27 27 28 30 29 28 27 25 24 23 23 22 21 19 18 17 16 16 16 17 16 16 16 15 16 16 15 14 14 15 14 13 12 12 11 10 9 9 9 9 8 8 8 8 8 8 7 7 7 8 8 9 10 11 10 10 10
9 10 10 8 6 6 5 4 6 7 8 7 8 10 7 7 3 4 5 7 8 4 2 1 1 4 8 8 7 9 10 8 13 13 9 14 17 22 26 25 26 26 26 26 25 28 27 26 25 23 23 22 21 19 18 17 17 17 17 17 17 16 16 16 16 15 14 14 15 15 14 13 12 11 10 10 9 9 9 9 8 8 9 8 8 7 6 6 6 7 8 9 10 10 10 10 8
10 11 11 9 5 3 4 4 6 7 8 7 9 6 4 5 5 8 7 6 3 1 2 1 2 6 10 10 7 5 7 7 11 13 12 16 22 25 25 25 25 25 24 24 23 27 28 26 25 24 23 22 21 20 18 17 17 17 17 17 17 17 17 16 16 15 15 15 15 15 14 13 11 10 10 10 10 9 9 8 9 9 9 9 8 7 7 7 7 7 7 8 9 9 9 9 8
10 12 11 9 5 4 4 5 7 7 10 10 10 6 4 5 7 7 5 3 2 2 3 3 3 5 9 7 8 7 6 5 8 12 17 20 24 25 25 24 24 24 24 23 23 27 28 26 25 24 23 22 21 20 19 18 17 17 17 17 17 17 17 17 16 15 15 15 15 14 13 12 11 11 11 10 9 9 8 7 8 8 9 9 8 7 7 8 7 8 8 9 9 8 7 7 6
11 9 7 7 5 4 5 7 8 8 11 12 13 10 3 6 5 3 1 1 2 4 5 4 3 5 7 5 8 9 8 4 6 13 20 23 25 25 23 24 24 24 24 22 23 28 28 26 25 24 23 23 21 20 19 18 17 17 17 17 17 17 17 17 16 16 16 15 15 14 13 13 12 11 11 10 9 8 7 7 7 7 8 9 8 8 7 7 8 8 8 8 8 6 5 4 4
12 7 3 6 5 4 6 8 9 9 10 11 13 8 7 7 4 5 4 1 3 4 6 5 5 3 4 5 6 6 7 5 11 21 23 24 24 23 23 24 24 23 23 22 25 29 28 25 25 23 23 22 21 20 19 18 17 17 17 17 17 17 17 17 16 16 16 15 14 14 13 13 12 11 10 9 8 7 6 6 6 7 8 7 7 7 7 6 6 7 6 6 6 5 4 3 4
11 7 4 6 6 6 7 8 10 10 13 13 13 6 3 1 1 5 10 6 3 4 6 4 3 4 4 7 6 3 7 10 17 24 22 23 22 21 22 24 24 24 23 22 27 30 27 25 24 24 23 22 21 20 19 19 18 17 17 17 17 17 17 16 16 16 15 14 14 14 13 12 11 9 9 8 8 6 5 4 5 6 7 6 6 7 6 6 6 5 4 3 5 5 5 5 6
7 6 5 5 6 7 8 8 9 10 13 15 13 5 2 1 2 6 10 10 8 6 4 5 3 5 10 7 5 2 8 12 14 20 20 20 22 20 20 22 23 24 24 23 28 29 26 26 24 23 23 22 21 20 19 19 18 18 17 17 17 17 16 16 15 14 14 13 13 13 12 11 10 9 8 8 7 6 5 3 4 5 6 6 5 6 6 7 6 5 4 4 4 5 6 7 7
4 5 5 5 7 7 8 8 9 10 13 16 10 2 1 0 3 7 6 10 9 6 4 6 2 6 11 5 4 3 10 10 2 12 20 20 20 20 20 21 22 24 24 24 27 27 26 25 24 23 22 22 20 19 19 18 18 18 17 17 17 16 16 15 14 13 12 12 12 12 11 10 9 9 9 8 7 6 5 4 3 4 5 6 6 6 6 6 6 5 5 4 4 5 7 7 7
5 6 5 6 7 7 9 8 11 12 12 14 6 1 4 4 3 5 6 10 9 6 6 8 5 8 8 5 5 2 11 8 5 3 15 20 20 19 22 22 21 22 23 24 26 26 25 25 24 23 22 21 20 19 18 18 18 17 17 17 17 16 15 14 13 12 11 11 11 11 10 9 9 9 9 8 7 6 5 4 4 4 4 5 6 6 6 6 6 6 5 4 4 6 7 7 5
6 7 6 7 7 8 10 9 11 11 12 9 5 7 2 4 2 4 6 9 10 9 7 10 10 10 7 5 6 3 8 11 9 5 5 14 20 20 22 22 21 22 22 24 25 25 25 24 24 23 23 21 20 19 18 17 17 17 17 16 16 15 14 14 12 11 11 11 10 9 9 9 9 9 8 8 8 7 5 5 4 3 4 4 5 6 5 5 5 5 5 4 5 6 6 5 4
6 6 6 7 7 10 9 9 11 9 9 5 8 9 7 3 2 3 6 10 10 9 7 10 16 12 9 5 5 4 6 12 15 10 3 6 18 21 21 22 22 22 22 23 24 24 24 23 23 23 22 22 20 19 17 17 17 17 16 16 15 14 14 13 12 11 11 10 9 9 8 8 8 8 8 7 8 7 5 5 5 4 4 4 5 4 5 5 5 5 5 4 5 6 5 4 3
7 6 6 7 7 9 9 10 10 8 7 6 5 3 6 2 4 2 5 10 9 9 8 11 16 9 9 8 6 7 11 14 16 15 7 6 16 21 21 22 23 22 20 21 23 22 22 21 21 22 21 21 20 18 18 17 17 17 17 16 16 15 14 13 12 11 10 10 10 9 9 8 8 8 8 7 7 6 5 5 5 4 4 4 4 4 5 6 5 6 6 6 6 5 4 4 4
6 6 6 7 8 9 8 10 9 9 7 6 1 3 3 3 4 3 5 7 9 10 8 8 10 7 10 10 11 17 18 19 19 20 15 11 14 18 17 17 21 21 19 19 21 21 21 20 19 21 20 20 19 17 18 17 17 17 17 17 16 15 15 14 13 12 11 10 10 10 9 9 8 8 8 8 7 6 6 5 5 5 4 5 5 4 4 5 6 6 8 7 6 5 4 4 4
6 6 7 7 8 10 8 10 9 6 4 7 5 0 3 3 3 2 3 6 11 13 9 7 6 8 9 7 19 25 23 22 21 20 17 14 12 15 13 12 13 14 16 17 19 20 20 19 19 20 19 19 18 16 16 17 17 17 17 16 16 16 15 15 14 13 12 11 11 10 10 9 8 8 8 8 8 8 7 6 6 5 5 5 4 5 4 4 5 7 9 8 6 5 4 3 3
7 5 7 7 8 10 8 13 8 3 3 3 7 5 2 5 5 2 2 7 9 14 11 8 14 13 15 17 25 24 21 22 21 19 17 13 11 13 13 14 12 9 14 16 17 19 19 19 19 19 18 18 18 16 15 16 17 17 16 17 16 16 16 15 15 14 13 12 12 11 11 11 10 9 10 9 10 10 9 8 6 6 5 5 4 5 5 5 6 7 9 9 7 6 5 4 3
7 6 7 8 9 11 12 17 7 5 6 8 8 3 1 4 6 4 3 8 9 11 12 8 18 17 18 19 22 21 19 17 16 16 15 13 13 13 12 15 16 13 14 15 17 19 19 20 19 18 16 16 16 15 14 14 16 16 14 15 15 16 16 16 14 14 13 13 14 13 13 12 12 11 11 10 10 11 10 8 7 7 6 5 5 4 4 5 6 8 8 9 8 7 8 7 5
8 7 8 9 11 14 15 16 8 7 9 10 7 4 3 6 6 4 5 10 10 10 10 8 17 17 17 17 17 18 16 13 11 8 6 8 13 14 13 14 17 18 18 16 18 20 19 19 18 17 16 15 14 14 14 12 14 14 13 14 14 15 16 15 15 14 14 14 15 15 13 12 12 12 11 8 8 10 9 9 9 8 6 6 6 5 5 5 6 7 8 9 10 9 9 9 8
7 8 9 11 14 13 13 10 6 7 9 8 10 7 6 10 5 3 8 9 10 10 12 12 17 20 18 18 17 15 13 12 11 7 1 5 12 13 12 14 18 22 22 19 18 20 21 20 20 17 16 16 13 14 14 12 15 14 13 15 14 14 14 15 14 14 13 14 15 15 14 12 11 10 10 9 8 8 9 10 11 9 8 8 7 6 5 6 7 8 9 10 11 10 9 9 10
7 10 12 14 15 13 11 7 2 3 6 7 10 9 9 9 5 6 10 8 9 4 5 10 15 22 20 19 17 15 12 10 12 10 4 6 6 7 11 15 17 21 22 20 21 21 22 22 22 20 17 17 14 14 13 12 14 14 14 15 13 13 13 14 14 14 13 13 14 15 14 13 11 8 9 9 8 9 9 9 12 12 11 10 8 9 8 7 7 10 10 10 10 9 9 10 8
9 10 12 13 14 13 10 7 3 1 4 8 9 10 9 8 9 11 10 9 6 10 19 13 8 20 20 18 17 15 13 11 12 12 9 6 4 1 8 16 16 18 19 19 21 23 25 22 21 20 19 17 14 13 12 12 13 13 13 13 11 10 11 13 14 14 13 15 15 14 14 13 12 10 10 9 8 10 11 9 11 13 13 13 10 9 11 9 7 11 11 11 10 10 10 9 6
12 10 11 13 13 12 10 7 5 4 6 10 10 10 9 9 11 8 7 9 2 14 19 18 17 16 16 16 14 13 12 10 8 12 13 10 12 4 14 15 17 16 17 17 18 20 24 24 22 20 18 17 15 12 12 12 13 14 13 14 12 10 12 14 15 15 14 14 14 14 14 12 11 10 9 9 9 9 10 9 10 11 13 14 10 9 11 10 8 11 11 10 10 10 10 8 7
12 10 12 13 12 9 8 8 8 8 8 9 11 10 11 13 10 6 6 7 5 12 15 14 16 13 13 13 12 10 10 10 6 9 14 17 19 15 21 13 16 15 17 17 15 16 19 22 25 22 18 20 17 15 17 15 15 16 13 13 13 11 13 14 15 16 15 13 11 14 14 12 12 10 8 9 10 10 8 9 9 11 13 12 11 10 10 10 9 11 9 7 8 9 8 8 9
7 10 13 14 13 9 8 10 11 11 9 8 11 11 13 13 7 6 7 5 7 11 16 14 12 12 12 11 9 9 9 10 10 9 12 20 18 20 21 15 15 15 17 17 14 13 15 17 22 21 18 21 17 15 17 13 14 18 14 13 15 13 13 11 11 14 14 12 11 13 14 13 13 11 9 9 9 10 9 8 7 9 11 10 9 9 8 8 8 9 9 9 10 9 9 11 9
7 10 13 15 13 8 9 12 12 10 9 11 12 12 14 10 4 6 5 6 6 9 15 11 10 12 11 10 8 6 7 6 8 4 4 12 14 22 17 17 15 16 16 15 12 13 15 14 16 16 16 18 16 16 13 7 9 13 12 12 14 13 12 9 9 11 11 12 12 11 11 12 11 10 10 11 9 9 8 7 6 7 9 9 8 8 8 7 6 8 10 11 11 9 10 12 10
8 8 10 12 11 10 13 13 10 8 10 12 11 13 13 8 6 10 7 8 8 8 12 9 9 10 9 10 7 4 4 4 4 5 5 2 14 18 13 14 15 17 14 13 15 14 13 14 16 16 15 13 11 16 14 8 7 6 6 8 9 10 12 10 9 9 8 9 11 10 8 9 8 8 10 10 9 9 9 10 8 7 8 10 9 8 7 6 6 6 8 7 8 8 8 9 9
9 7 9 12 12 13 15 13 11 9 10 10 10 13 10 8 10 9 8 7 9 11 13 8 9 9 9 8 6 5 6 9 12 11 5 11 14 9 10 13 16 16 13 15 17 15 15 19 19 15 15 12 11 14 12 9 8 7 9 9 7 8 8 8 9 8 8 9 12 11 10 9 8 9 12 12 10 10 11 12 10 8 9 11 11 10 7 6 6 5 4 2 5 6 5 4 6
8 9 9 11 11 12 15 14 12 12 11 11 10 9 7 12 12 7 8 7 9 10 12 9 10 10 10 8 5 5 6 9 10 5 6 17 14 7 9 13 16 14 15 18 16 16 19 20 17 14 15 12 11 12 10 10 8 5 10 11 8 8 8 7 7 6 7 9 11 10 11 10 8 10 13 14 12 11 11 10 9 9 8 9 12 12 10 8 6 4 3 2 3 4 4 2 3
8 10 9 7 8 11 13 13 12 13 9 11 9 7 6 10 10 10 6 8 8 8 12 9 10 11 11 10 8 6 6 8 8 12 16 19 13 7 8 13 16 15 18 18 16 16 18 17 15 15 14 12 12 12 11 10 7 6 9 12 9 9 11 10 10 9 7 9 10 9 10 9 8 9 10 12 12 12 10 8 8 8 8 9 10 12 11 8 6 4 3 3 4 5 5 4 2
8 8 8 7 9 9 10 12 11 10 7 11 9 7 7 10 11 12 6 7 8 8 14 11 10 12 11 11 11 9 8 9 13 18 17 15 12 10 9 13 15 18 20 18 17 17 16 16 15 15 14 13 13 12 12 11 9 9 10 10 8 8 10 10 12 12 9 11 11 12 12 10 9 8 6 8 10 10 8 6 6 6 7 7 8 11 11 8 7 6 4 4 5 4 4 3 1
7 7 7 8 10 5 9 11 11 10 9 12 11 8 8 6 10 11 6 7 9 7 15 17 12 11 11 8 7 10 10 9 11 15 14 12 14 13 12 14 17 20 21 18 18 17 16 16 15 15 14 13 13 12 12 11 10 10 9 8 7 8 7 8 11 10 8 9 9 10 10 10 10 8 6 7 8 8 6 4 5 4 5 7 9 10 10 8 6 6 5 3 5 5 4 4 2
6 7 7 9 12 6 7 10 11 11 11 10 11 12 10 4 11 8 6 7 10 8 11 18 14 10 9 5 5 9 9 9 10 12 14 14 15 16 15 14 19 22 20 19 17 17 17 15 15 14 14 13 13 13 11 11 10 9 9 8 8 8 7 7 10 11 11 10 8 8 7 7 8 8 8 7 7 7 5 4 4 3 5 7 10 9 7 8 5 5 4 2 4 4 2 3 2
4 5 6 7 10 8 7 7 9 10 9 8 9 11 11 6 9 8 7 7 9 9 9 15 14 12 10 7 8 10 11 10 10 13 16 16 17 18 18 14 19 23 20 19 17 16 16 15 16 14 14 14 13 12 11 11 9 8 9 8 8 9 8 8 8 9 9 8 8 7 6 6 5 4 4 3 4 4 3 3 3 2 4 5 7 7 6 5 3 5 7 4 4 3 1 2 1
11 12 7 7 7 7 8 2 8 7 7 9 10 10 12 10 10 10 9 7 6 8 7 11 12 15 13 12 12 13 14 12 13 17 18 18 18 18 19 15 16 21 20 19 17 15 16 16 16 16 15 15 14 12 10 10 9 8 9 8 9 9 10 9 9 9 10 10 9 7 6 5 4 3 2 0 1 1 1 1 2 3 3 3 4 5 5 4 4 7 9 6 4 3 2 3 2
12 13 6 5 6 7 8 4 10 5 4 7 9 12 13 10 10 9 7 8 7 7 6 5 10 15 16 16 17 16 16 14 16 20 19 18 17 16 19 17 16 19 19 19 17 15 16 16 17 17 17 16 14 12 10 10 10 8 8 10 9 7 8 9 8 9 9 9 8 7 7 5 4 3 2 1 0 1 2 1 1 1 2 2 3 4 5 4 5 6 7 7 5 4 5 4 4
9 10 8 5 6 7 3 4 8 6 2 5 6 12 12 9 11 9 5 5 6 5 8 5 8 10 11 15 20 16 15 14 15 17 19 20 19 16 17 18 17 18 18 19 18 17 17 17 18 18 18 17 14 12 10 9 10 9 8 9 9 9 10 12 11 9 7 8 7 7 7 6 5 4 3 3 2 1 1 2 2 2 2 1 1 1 3 3 5 6 6 8 6 5 7 7 6
8 7 7 6 8 7 5 7 3 6 3 6 7 10 10 8 11 7 4 7 5 5 8 9 6 7 8 11 18 15 14 14 13 13 15 20 20 14 12 15 18 18 17 19 19 18 19 18 19 19 18 17 15 13 12 10 10 10 9 10 12 13 14 15 12 10 9 9 9 8 7 7 6 5 4 3 3 4 4 4 4 4 4 3 3 3 2 1 2 5 6 6 6 7 7 7 10
7 6 7 7 8 9 2 5 1 1 2 4 8 8 9 8 7 5 8 10 4 5 11 11 6 6 7 6 13 16 14 13 13 12 12 14 16 13 12 16 20 18 17 20 21 20 20 19 20 20 19 18 17 16 14 13 12 11 11 13 14 14 14 13 12 10 9 9 9 8 8 8 7 7 7 6 6 6 5 6 6 6 6 4 3 4 5 4 4 4 5 5 5 7 6 6 9
7 8 9 9 9 10 5 4 4 4 2 4 9 7 6 8 5 7 11 8 5 8 11 8 5 6 6 4 9 16 13 11 13 12 11 11 11 12 16 18 20 19 18 21 24 23 21 20 21 21 20 19 18 17 16 16 15 14 13 13 14 14 12 12 11 9 8 8 9 8 8 8 8 8 8 9 9 6 6 7 6 7 8 7 5 5 6 6 7 8 6 4 4 5 4 4 5
7 9 11 12 13 13 7 2 5 2 5 6 7 7 5 8 8 10 10 6 7 10 8 6 7 8 7 5 7 12 11 8 8 8 6 8 10 14 20 20 19 20 21 23 25 24 22 21 22 21 20 21 20 18 18 18 17 15 14 14 15 14 12 11 10 8 8 8 8 8 8 8 8 9 9 9 8 7 8 7 7 9 9 8 8 9 10 10 11 10 9 8 5 2 3 4 4
6 4 7 11 12 12 10 5 3 4 5 5 7 6 5 6 8 10 11 11 11 9 8 9 9 8 8 6 5 8 10 8 6 6 4 7 8 11 16 20 20 23 25 28 29 25 24 22 23 23 21 22 21 20 19 19 18 17 15 14 15 14 13 13 11 9 9 9 8 7 8 8 8 9 9 8 8 8 10 9 9 10 9 7 9 12 14 14 14 12 10 11 11 8 6 6 4
4 3 7 10 10 10 11 9 6 6 6 3 7 7 6 5 7 8 8 9 11 11 10 10 9 10 9 7 7 8 10 12 9 9 11 12 10 10 13 16 18 21 25 32 31 26 25 24 24 24 22 23 23 21 21 20 19 19 16 15 14 14 15 15 13 10 10 9 8 8 8 8 8 8 8 9 9 9 10 10 9 10 11 10 11 13 13 13 13 12 10 11 12 11 9 9 8
5 3 7 10 10 11 10 9 8 6 7 6 7 8 6 5 7 7 6 6 8 10 10 8 8 8 10 8 6 3 5 10 10 11 13 12 13 16 17 14 14 18 27 33 29 26 26 25 25 24 24 24 24 23 22 21 19 20 18 16 15 16 16 15 13 12 11 10 8 8 8 8 8 8 8 9 10 10 10 10 10 11 13 14 14 13 12 12 12 11 10 11 11 11 11 10 10
4 4 7 9 10 11 9 8 7 5 6 8 8 7 6 5 6 6 6 7 7 8 8 8 7 5 5 3 5 5 3 5 6 9 9 11 16 21 26 28 26 28 33 32 25 25 26 27 26 26 25 25 26 25 24 22 20 20 19 17 17 19 18 16 15 13 12 10 9 8 8 8 8 8 8 9 9 9 10 10 10 11 12 13 13 13 13 12 12 11 11 11 11 12 12 12 12
3 4 6 8 9 9 7 5 5 5 6 8 11 11 8 6 6 5 4 7 7 6 5 6 5 3 5 5 3 1 1 3 2 4 6 6 9 12 19 29 34 35 32 26 23 23 26 28 28 27 27 27 27 27 26 24 22 22 20 18 19 21 19 18 17 15 13 12 11 10 9 8 8 8 8 8 8 8 9 10 10 11 12 12 12 12 12 12 12 11 11 12 12 12 11 11 12
5 5 6 7 7 6 5 5 5 6 6 7 10 12 11 7 5 4 0 6 6 4 5 8 6 5 6 5 3 3 4 4 4 6 7 5 2 3 7 12 21 28 25 21 22 23 24 27 29 29 27 28 29 28 28 25 23 22 20 19 20 21 20 20 19 16 15 14 12 12 11 10 9 8 7 7 6 7 9 10 10 9 10 11 10 11 12 11 11 12 12 12 12 12 12 12 12
6 6 5 6 5 4 5 5 5 6 6 5 5 6 7 6 5 4 4 7 6 2 5 11 9 8 8 5 5 5 4 4 6 7 6 4 2 2 5 9 12 18 20 19 20 21 23 25 28 30 29 30 30 30 29 27 24 23 21 20 20 22 21 20 20 18 16 15 14 14 14 13 11 10 8 7 6 6 7 8 8 8 9 10 10 11 11 11 11 12 12 12 13 12 12 12 12
6 6 5 5 4 5 6 5 6 5 6 7 3 1 3 4 5 5 5 8 8 5 6 8 9 8 7 5 5 6 6 6 7 6 6 5 3 2 1 6 9 13 18 17 17 19 20 20 21 23 27 31 29 30 30 27 25 23 22 21 21 22 21 20 20 19 17 15 14 15 15 14 14 13 11 9 8 7 6 6 7 7 9 9 10 11 11 11 10 11 11 11 11 11 11 12 12
6 7 5 5 4 5 5 4 5 4 4 6 3 1 4 3 3 1 6 7 7 7 7 8 9 7 5 4 5 7 7 7 6 7 7 6 5 5 4 2 3 9 14 15 15 16 15 16 18 17 19 28 28 28 29 27 25 24 23 22 21 22 21 20 19 19 18 16 15 14 14 14 14 14 13 12 11 9 7 7 7 7 8 9 10 11 11 11 10 10 10 10 10 11 11 11 10
3 4 5 5 4 5 5 4 6 5 4 4 3 3 3 1 2 1 7 7 6 8 9 8 8 8 7 5 5 7 7 7 7 7 7 7 7 6 6 4 2 7 10 9 11 12 11 14 20 19 17 23 26 26 27 27 26 24 24 23 22 21 21 19 18 18 17 16 15 14 13 13 14 13 14 13 12 12 10 9 8 8 8 8 9 10 9 10 9 9 10 10 10 9 9 8 8
2 2 4 4 4 6 5 4 5 5 5 5 4 5 3 2 3 5 7 8 9 10 10 10 9 8 8 6 6 7 7 7 7 7 7 7 7 7 6 4 3 6 7 6 7 10 11 11 18 21 20 20 24 24 25 26 25 23 23 23 22 21 21 19 17 18 18 15 14 15 13 12 13 13 14 14 13 12 12 11 10 9 9 8 9 9 9 10 10 8 9 9 8 8 8 8 7
4 3 3 2 5 7 4 4 5 5 6 5 4 7 6 4 3 7 9 10 10 11 10 11 11 9 8 7 7 8 8 8 9 8 8 8 7 8 8 5 4 3 3 5 6 9 10 10 14 20 21 20 21 22 23 24 24 22 21 21 21 21 20 19 16 16 18 16 14 15 13 11 13 14 14 14 13 12 12 11 11 10 10 9 9 9 9 10 10 9 9 8 8 8 7 7 6
9 7 5 3 4 4 3 4 4 5 6 5 6 8 7 5 3 6 11 11 10 12 11 11 11 9 9 8 8 9 8 7 8 8 7 7 7 9 9 7 5 2 3 5 6 6 7 9 12 14 14 14 17 21 22 21 20 19 19 19 19 18 17 18 16 15 18 17 14 14 14 12 13 14 14 15 14 13 13 12 12 11 11 11 10 10 11 11 10 10 11 9 9 8 7 6 5
11 8 6 5 4 3 4 4 3 5 6 5 6 7 4 3 2 3 9 11 10 9 9 9 10 10 10 9 8 8 8 7 7 8 7 7 8 9 10 9 8 6 4 5 7 7 7 8 10 13 15 14 13 15 18 20 19 17 16 16 16 16 15 14 14 13 15 18 15 13 13 14 13 14 15 16 15 15 15 15 14 13 13 13 12 12 12 12 11 12 11 10 10 10 9 8 6
6 6 5 5 4 4 5 5 4 5 6 5 6 5 2 1 1 1 5 8 5 3 5 7 9 10 11 9 8 8 7 7 8 8 8 8 8 9 8 9 9 9 9 5 4 9 11 8 8 13 16 12 8 5 8 13 17 16 15 15 15 14 14 13 13 11 11 13 15 13 12 13 14 15 15 16 17 17 17 16 16 16 15 15 15 15 14 13 12 12 12 11 11 11 10 9 8
6 5 4 5 4 2 3 4 5 5 4 4 6 5 2 0 1 2 1 3 4 3 6 6 10 12 11 9 8 8 8 8 8 8 9 8 9 10 10 10 9 9 10 10 8 6 6 7 10 13 13 10 8 6 6 8 11 12 13 13 13 13 12 11 12 13 10 10 13 14 12 11 12 15 16 16 17 18 19 19 18 18 18 18 17 17 16 15 14 13 13 12 12 11 11 10 10
Wind_Direction
254 275 287 283 272 274 269 241 246 217 223 254 252 259 255 253 254 211 152 135 300 246 72 47 302 326 312 342 68 57 36 41 39 62 90 97 107 114 121 123 128 134 133 143 147 147 149 148 147 145 144 141 140 140 143 149 153 158 157 156 156 156 156 151 147 144 138 131 135 140 136 132 131 133 135 137 136 132 130 129 126 118 111 106 103 96 96 98 93 90 89 86 85 86 87 91 92
265 274 266 262 258 261 264 215 248 249 222 245 243 245 252 252 263 293 273 267 72 85 47 44 315 311 339 323 40 76 53 56 76 86 97 109 110 115 123 127 131 132 136 144 146 148 150 149 148 146 145 141 139 140 142 148 152 155 154 154 154 155 156 152 147 146 140 132 135 140 140 138 137 137 139 140 137 132 126 122 119 116 111 105 100 95 93 94 93 90 92 90 89 90 87 93 96
266 275 258 242 238 238 269 242 240 258 243 248 248 237 235 238 227 230 263 312 64 77 13 53 33 308 23 316 1 77 71 65 89 98 111 117 114 123 130 129 129 131 136 140 145 150 150 151 150 147 146 141 140 141 142 146 149 151 152 152 153 154 156 153 147 145 140 134 137 141 144 143 140 138 137 137 131 127 123 118 117 113 107 105 101 96 95 97 95 94 96 94 96 95 87 90 94
260 271 263 248 236 223 246 251 235 252 255 255 264 248 222 228 207 79 50 48 51 63 300 49 112 41 39 7 22 76 85 81 97 104 121 123 125 134 133 128 128 131 134 137 142 149 152 152 151 149 146 142 142 140 142 144 146 149 150 151 152 152 153 151 147 144 138 137 140 144 146 143 140 136 133 128 122 119 118 115 112 109 106 106 105 104 103 105 104 102 102 101 101 95 90 88 86
255 262 259 251 255 245 242 251 242 245 251 256 268 280 22 349 6 46 61 54 17 360 288 216 154 77 60 24 19 62 72 89 95 99 115 122 130 135 131 128 130 131 133 136 140 150 153 153 152 150 146 144 143 141 143 144 146 149 149 150 151 151 150 150 148 144 140 141 143 146 146 143 140 134 129 123 118 114 112 114 113 115 114 111 114 121 120 117 110 108 108 107 105 99 95 92 90
250 256 241 239 269 301 275 251 246 244 244 254 266 281 31 22 12 29 63 40 319 277 268 209 203 86 83 53 48 41 38 91 96 101 119 126 134 135 132 130 131 131 135 135 140 152 154 155 154 149 148 146 144 143 144 145 148 149 149 149 149 150 150 150 148 146 144 145 146 146 144 141 137 132 128 123 119 115 110 109 112 122 125 122 125 131 132 130 119 112 114 109 109 108 105 99 104
248 257 222 223 252 267 259 249 251 253 242 242 253 270 7 77 53 339 207 184 220 221 233 213 203 90 83 102 78 41 33 77 104 114 127 132 135 135 134 132 131 132 136 134 141 154 155 155 153 150 149 147 146 144 146 147 147 148 148 147 148 150 151 151 150 148 147 147 147 146 143 141 137 132 128 125 123 120 114 105 104 118 131 133 136 141 137 141 134 124 124 116 114 115 118 111 114
247 261 232 234 239 227 236 249 252 257 257 249 254 283 31 58 44 311 289 207 181 203 207 196 183 112 47 98 92 40 52 77 107 116 128 133 135 134 134 132 131 134 134 134 145 154 154 155 153 151 150 148 148 146 148 146 145 147 146 146 147 149 150 151 150 149 149 149 149 147 146 143 139 135 131 126 123 122 118 108 104 112 129 137 139 148 145 149 147 141 143 129 124 121 122 114 107
240 243 248 252 246 246 241 249 246 248 261 258 258 254 107 145 326 296 295 287 221 228 210 175 194 161 100 83 82 57 71 81 109 118 128 135 134 131 133 134 133 134 132 135 148 153 153 156 154 152 152 151 150 150 149 146 145 145 145 146 146 147 148 149 149 150 151 151 150 149 150 150 147 142 137 131 126 126 120 107 108 112 124 132 132 143 146 147 145 150 156 131 129 128 119 104 100
229 226 242 258 247 257 249 249 250 243 251 252 255 253 118 217 256 255 271 275 253 247 189 140 258 162 125 104 91 41 45 61 107 123 128 134 135 134 133 133 133 134 131 135 146 151 153 155 154 154 155 154 153 153 151 148 148 147 147 147 145 146 146 148 149 151 153 153 152 153 156 157 157 153 149 143 135 131 125 111 112 115 120 126 127 137 145 147 140 134 137 130 131 130 119 100 91
234 222 232 262 253 254 253 253 256 242 242 243 235 240 338 204 254 263 265 275 272 264 186 142 221 118 115 123 100 37 55 49 44 131 133 136 136 136 131 128 133 136 132 133 143 149 150 153 155 156 156 156 156 155 153 151 150 149 149 148 147 147 147 150 152 153 155 156 158 159 161 162 165 162 159 155 148 141 133 128 129 123 121 127 128 135 146 150 143 130 131 135 130 125 118 105 87
245 236 219 242 252 254 260 260 260 257 254 244 207 173 251 179 174 263 266 270 270 255 207 150 143 115 112 112 103 58 85 85 297 137 137 140 136 132 128 128 131 134 133 135 143 147 148 151 154 157 159 158 158 158 156 153 153 152 150 150 150 150 151 153 156 157 157 160 163 162 163 166 173 170 165 162 156 157 149 143 148 135 126 132 134 140 150 149 140 139 142 136 129 129 125 118 93
243 252 238 241 252 256 265 265 268 272 275 272 94 80 129 151 145 280 290 281 274 264 221 150 139 136 127 97 118 140 109 142 167 134 150 145 134 126 122 126 129 132 134 138 142 145 148 151 154 159 161 160 160 160 158 157 156 154 154 154 154 154 155 157 159 160 160 164 165 164 168 173 179 178 171 169 165 167 163 151 153 154 141 141 147 148 155 156 148 147 151 143 136 139 138 136 104
240 251 258 262 262 262 269 265 274 281 288 342 90 116 120 161 239 302 306 287 277 276 261 139 132 133 129 123 138 155 144 164 155 137 227 162 128 121 120 125 129 133 135 140 142 144 147 149 155 159 161 162 163 163 162 162 161 159 159 159 159 160 160 160 162 162 165 166 165 168 174 180 185 185 179 172 170 172 166 152 155 168 160 153 159 159 163 171 167 161 158 153 147 147 152 157 130
242 254 258 266 269 269 268 263 272 274 279 49 82 155 115 198 250 270 270 274 275 278 281 128 129 129 144 170 165 164 166 164 155 143 162 159 126 119 124 128 130 135 138 141 142 143 144 145 153 157 160 164 165 166 166 167 167 166 165 166 164 164 165 165 165 165 167 165 166 171 174 179 181 184 185 179 175 177 168 157 163 174 176 170 170 171 176 185 183 174 166 161 159 157 156 150 132
241 264 266 259 262 261 261 266 261 256 260 90 87 285 84 217 238 254 255 268 273 271 265 138 134 136 162 197 154 150 161 156 152 142 140 144 126 118 128 132 132 138 140 139 139 142 143 143 149 154 160 165 164 167 170 171 173 173 170 171 171 170 170 168 169 169 166 164 168 171 167 165 170 180 184 183 181 179 175 168 172 179 186 186 182 183 190 198 196 184 174 169 169 167 152 140 130
237 247 259 256 253 254 255 261 260 274 264 122 131 360 37 306 274 253 247 261 267 271 252 147 112 108 132 159 135 142 151 148 152 148 145 146 125 116 119 111 113 127 133 137 138 140 145 145 145 152 160 164 164 167 172 175 177 179 175 174 177 178 176 173 174 173 168 168 171 169 161 153 158 173 175 181 181 176 182 181 179 187 191 194 190 188 200 207 203 194 184 179 180 182 173 157 148
240 232 242 251 249 253 253 251 258 7 277 97 73 68 31 299 299 302 245 251 257 275 270 117 92 87 96 113 126 138 144 143 151 153 153 146 122 114 115 113 120 136 135 137 138 137 140 142 147 154 156 162 166 168 171 178 182 181 180 179 182 183 180 179 178 176 173 173 176 172 166 161 162 172 171 179 182 176 183 188 189 193 190 196 197 192 200 206 209 207 199 194 197 204 205 201 183
233 241 237 242 250 256 259 255 262 38 315 341 21 36 326 289 299 310 278 260 244 253 257 127 105 104 105 116 128 135 138 137 142 150 157 149 129 130 140 139 146 160 151 142 139 136 138 142 149 150 151 161 166 168 170 177 181 179 182 182 185 188 183 182 180 178 181 179 183 183 178 176 175 178 177 182 184 178 184 191 197 200 195 199 206 202 200 205 213 214 213 210 210 219 225 221 204
222 240 245 242 245 254 264 271 304 351 316 321 319 314 324 281 277 289 282 274 257 240 238 160 123 124 123 125 131 136 134 131 127 128 157 154 140 147 160 153 151 161 162 153 142 139 144 148 147 145 152 160 162 167 169 175 178 176 182 182 185 191 187 187 182 183 190 186 187 189 187 191 190 182 180 185 187 183 185 190 197 205 209 207 211 209 202 210 215 216 220 220 216 220 227 225 222
217 225 243 251 252 262 278 298 331 317 305 307 300 310 294 276 280 285 278 274 262 240 232 207 148 134 137 133 137 143 132 131 127 106 231 200 154 153 161 156 151 156 160 157 149 143 144 144 145 151 157 159 162 164 168 179 178 176 183 184 187 189 188 192 190 191 199 195 190 191 192 200 202 188 180 179 184 191 187 189 199 206 212 216 214 205 208 219 216 218 221 223 220 219 227 230 233
231 233 241 256 270 284 301 316 338 305 307 302 293 285 274 280 287 264 261 256 265 289 302 248 174 144 140 136 140 141 135 145 135 126 220 243 149 148 162 154 151 153 153 151 148 144 141 143 148 154 159 163 167 163 166 177 175 177 183 185 191 193 192 197 201 197 200 205 200 196 196 201 208 204 192 185 184 191 189 188 203 211 209 211 211 205 221 234 218 212 216 221 220 219 231 241 239
239 246 246 255 270 275 285 309 339 346 284 275 270 265 269 283 273 258 247 244 266 42 32 8 116 133 128 131 140 141 151 152 133 143 191 226 101 288 204 156 152 154 146 144 144 144 146 150 154 155 159 163 164 163 170 177 177 180 180 182 190 197 194 197 205 200 200 210 207 199 196 199 205 204 196 196 188 190 200 199 207 217 209 208 208 204 222 240 218 202 210 215 215 220 228 236 233
236 246 254 255 261 265 268 283 291 269 254 261 259 260 267 268 266 252 231 242 223 74 55 44 74 106 116 124 133 137 149 126 113 152 166 166 128 213 241 166 151 155 144 144 143 144 148 154 158 156 158 162 165 168 172 183 190 188 181 179 182 193 194 194 204 203 199 204 206 202 200 199 199 200 198 201 191 191 214 211 207 219 210 208 207 199 214 228 213 201 211 210 207 218 219 223 216
232 241 259 266 268 269 270 270 268 259 251 254 252 257 259 255 264 260 237 231 164 99 85 80 84 96 107 115 115 118 131 116 141 172 160 155 143 201 231 171 148 151 141 141 144 153 151 152 154 152 156 162 165 168 173 186 198 192 184 184 187 192 192 198 209 207 201 198 205 207 206 201 187 191 211 208 189 180 207 212 202 209 204 203 201 198 208 212 208 204 209 204 199 212 211 215 211
235 243 251 257 258 250 257 258 249 246 244 246 244 246 249 247 257 260 241 200 169 124 104 105 106 109 113 115 110 119 139 144 166 191 178 152 151 216 214 156 149 145 136 145 156 160 142 141 147 148 154 157 158 162 170 179 182 181 179 185 193 193 191 202 212 206 201 197 205 206 203 203 181 177 209 209 183 170 197 214 201 201 198 196 195 197 203 203 206 203 203 205 201 199 196 199 204
249 257 252 251 260 258 255 253 242 235 233 240 240 241 244 230 211 248 211 144 188 153 123 133 135 125 130 127 117 135 149 152 152 171 215 145 169 220 192 145 148 135 138 149 143 134 128 136 136 133 138 145 156 159 159 154 160 174 174 180 189 193 195 205 218 206 199 194 200 204 199 204 180 168 206 205 176 169 193 214 213 211 199 194 199 198 200 203 204 209 215 212 204 200 195 195 197
258 271 267 260 267 263 255 255 247 238 236 232 236 247 242 202 201 236 189 153 209 167 131 156 152 131 134 130 115 101 86 40 56 64 358 249 206 208 162 137 137 130 143 139 123 121 124 127 114 112 124 121 128 141 147 153 167 181 170 183 187 180 182 198 223 216 205 198 200 202 189 199 182 170 205 196 175 187 199 205 211 221 211 203 203 195 198 204 200 225 237 208 191 206 197 186 195
260 263 266 260 256 247 242 244 234 235 238 213 227 252 236 212 226 218 156 163 212 158 135 159 155 137 126 110 91 75 58 38 20 24 3 268 237 185 138 134 132 135 139 122 120 115 102 106 104 108 124 109 92 114 128 140 156 170 171 184 183 167 169 195 220 213 205 193 192 194 179 192 197 190 202 190 183 205 204 200 205 217 220 212 204 196 198 206 204 228 251 149 140 189 188 166 187
257 247 251 257 254 241 225 224 222 228 232 193 214 250 219 220 216 168 136 178 216 163 152 171 155 141 121 100 91 87 73 66 37 32 205 244 243 168 142 138 137 140 127 120 121 108 99 105 109 111 119 110 100 109 108 113 122 131 152 151 147 164 166 183 206 204 209 191 181 182 173 186 200 198 198 187 187 203 202 198 205 212 217 215 204 197 195 197 201 211 215 156 130 168 176 182 180
252 242 243 243 259 248 205 198 210 220 210 168 208 251 232 227 171 142 163 183 214 173 154 164 140 135 128 125 136 123 108 123 150 179 202 232 228 173 155 148 145 136 125 129 124 113 113 114 115 118 119 111 108 111 103 108 111 90 107 112 115 145 146 162 180 175 188 185 180 180 175 180 185 194 196 187 188 195 197 196 205 210 210 215 207 195 190 189 195 193 181 168 159 158 163 180 199
236 238 236 223 250 248 172 172 198 210 178 158 216 255 246 239 151 142 190 188 220 182 142 140 123 117 118 127 139 136 136 157 177 189 207 220 197 181 178 159 144 134 134 137 128 124 124 122 122 120 118 115 112 111 105 106 103 89 94 99 111 128 121 138 155 152 160 167 174 177 175 174 173 184 190 192 197 195 195 198 209 210 196 200 201 194 186 185 193 186 175 163 159 153 154 167 220
216 232 243 232 242 220 147 172 193 205 195 176 208 248 252 231 140 142 181 197 223 198 143 142 133 113 114 122 133 132 137 165 185 190 200 194 179 185 190 169 145 139 143 140 136 132 128 126 126 120 117 115 112 109 106 105 100 98 105 105 112 119 111 115 121 114 108 126 152 161 161 168 170 172 178 200 214 207 203 208 215 206 185 184 186 189 186 188 191 176 176 170 165 167 163 154 118
204 218 235 245 248 222 158 173 183 208 223 198 193 233 254 137 122 146 171 216 224 206 150 139 140 127 120 126 136 135 144 172 185 184 186 183 179 182 188 176 148 145 147 143 142 136 132 132 128 124 122 117 114 113 109 108 105 101 103 102 105 107 103 108 111 101 87 89 111 125 129 147 158 169 186 206 225 220 214 214 212 191 193 194 180 176 187 197 178 141 159 173 186 200 199 171 122
315 265 229 241 253 238 215 178 169 197 217 223 203 227 247 166 151 173 174 225 234 217 175 144 146 133 128 157 163 160 164 174 181 179 182 184 187 182 184 182 149 146 150 145 145 141 137 137 133 130 126 123 120 116 114 114 109 101 105 106 103 100 93 91 93 96 94 87 90 97 99 110 121 142 174 200 221 220 226 230 235 227 217 212 188 179 188 207 183 160 178 178 173 192 205 200 177
332 303 253 238 255 237 248 171 140 180 199 221 224 227 234 205 189 182 172 196 225 243 203 150 150 142 152 178 172 170 170 173 179 179 181 183 192 181 175 184 154 147 153 148 149 148 144 142 138 136 132 130 127 122 124 122 114 109 114 104 88 84 87 83 74 81 95 96 93 90 88 93 97 100 110 90 240 225 312 235 214 253 254 233 213 206 201 203 195 188 195 195 181 195 183 151 178
322 314 295 248 255 234 238 173 146 178 226 220 232 239 231 218 220 210 189 180 182 254 260 169 164 160 169 174 167 171 168 171 176 176 180 180 192 187 170 178 165 152 154 153 156 155 154 151 144 143 140 135 134 135 137 130 125 119 113 108 103 102 107 101 81 74 83 92 94 89 89 94 99 100 94 67 348 270 315 324 173 221 281 275 256 241 228 217 208 196 191 191 189 219 219 176 183
313 314 314 292 268 246 218 140 153 152 243 262 265 263 246 218 236 242 215 192 175 223 270 241 187 185 189 169 164 166 159 170 174 171 178 176 186 193 175 173 168 161 157 158 166 164 161 158 150 149 146 141 139 139 136 126 124 125 120 118 113 104 106 105 90 76 74 79 79 75 78 78 80 86 78 80 84 80 33 9 19 9 358 342 337 237 232 232 224 208 187 182 177 201 225 225 218
298 290 286 286 274 259 97 93 152 142 165 260 259 266 269 226 230 252 232 236 210 187 257 263 211 216 225 173 163 160 156 167 170 171 178 175 178 177 164 163 161 166 167 166 175 172 165 161 154 153 149 146 142 136 132 120 115 118 115 113 105 93 92 96 92 87 82 80 77 75 78 71 69 75 65 76 87 62 53 60 50 29 29 36 47 67 74 72 186 183 172 168 165 181 196 214 222
274 277 267 263 261 258 185 128 186 14 119 275 276 280 298 275 249 269 246 236 212 185 240 255 228 219 239 193 161 156 160 164 166 177 178 175 176 158 147 159 159 167 178 181 184 177 170 164 157 157 153 149 143 138 137 129 121 114 107 108 110 104 97 93 92 89 87 86 81 76 76 70 67 64 49 59 80 70 56 62 67 61 55 59 70 71 73 75 87 112 135 146 158 181 180 183 211
249 245 254 265 263 265 274 115 89 347 320 284 285 284 288 273 240 245 246 218 190 222 230 237 239 226 229 212 157 154 160 163 164 177 175 171 175 160 161 169 169 177 189 197 193 181 173 166 160 158 154 151 146 142 143 138 130 122 116 112 109 110 107 103 101 95 91 89 83 78 75 71 72 69 56 61 71 69 67 62 65 81 75 69 77 79 86 94 91 89 97 124 162 199 202 170 181
254 235 237 254 271 284 299 79 107 286 266 225 240 259 254 239 220 231 241 198 199 237 228 215 239 241 228 209 166 149 145 141 144 152 169 176 166 168 177 176 178 189 199 209 204 185 173 167 160 158 156 152 149 146 147 142 136 131 127 124 122 126 129 123 119 114 108 99 91 86 79 76 78 77 73 73 71 69 74 64 61 81 78 61 60 66 72 82 87 84 80 82 87 107 176 160 157
263 278 262 246 258 282 285 274 230 238 261 202 192 239 259 240 237 239 234 205 198 224 232 224 227 230 230 220 183 151 137 134 130 123 173 203 172 171 184 182 187 194 201 214 212 189 172 166 161 159 158 155 153 151 150 145 141 141 138 138 141 143 136 127 124 121 114 109 104 96 86 83 81 80 80 79 73 70 74 68 60 68 72 64 61 63 64 66 71 74 74 78 76 77 105 122 123
251 342 305 267 252 263 264 261 250 246 269 220 184 231 263 259 264 270 252 210 190 207 223 224 220 207 205 211 204 189 159 152 159 165 186 199 190 188 190 191 196 194 202 217 212 188 172 168 163 160 159 159 157 156 154 150 148 149 148 151 152 145 132 127 129 128 124 122 116 109 100 92 85 83 83 80 79 79 78 77 70 64 69 78 78 70 68 68 69 71 71 78 83 84 93 104 113
236 253 276 274 265 260 257 251 245 250 268 251 213 227 246 253 259 264 252 213 198 209 207 211 226 202 189 199 189 160 127 134 154 175 183 181 183 193 196 209 224 210 213 219 205 182 174 169 165 163 162 162 161 161 157 154 155 154 153 157 151 138 134 134 136 135 134 134 127 119 111 102 93 89 87 82 81 83 82 81 78 72 71 77 82 81 82 82 81 81 79 78 79 79 84 91 95
243 282 286 280 271 265 261 258 257 255 258 262 255 243 245 258 254 237 216 204 214 215 190 197 229 199 160 138 73 56 69 113 151 176 176 171 176 184 187 195 210 217 219 214 193 179 176 171 169 166 164 165 165 164 160 156 162 160 158 162 151 139 142 145 142 142 144 142 135 129 119 110 106 99 97 95 88 87 87 84 82 81 79 81 85 88 88 89 88 87 86 86 82 76 79 86 85
226 258 271 266 258 256 258 265 271 262 248 252 254 248 247 257 260 256 217 190 208 225 187 173 196 161 103 80 76 94 117 95 108 136 125 140 169 183 188 189 195 205 211 199 182 182 178 173 174 169 167 169 167 167 162 160 166 165 163 165 154 148 153 152 147 150 154 151 146 142 134 125 123 118 113 108 102 101 98 92 89 87 88 88 88 91 91 89 88 87 84 84 84 79 78 87 91
252 256 266 269 252 246 252 246 245 251 250 251 256 255 248 244 256 291 68 153 181 241 195 158 154 137 105 94 106 80 63 63 53 69 82 86 101 231 238 217 197 193 193 186 182 186 181 177 177 171 169 170 169 169 164 162 168 170 168 168 160 157 161 156 154 159 161 160 157 151 146 141 139 137 131 126 120 115 108 103 100 98 98 97 96 98 99 96 93 94 91 85 84 83 82 86 90
255 253 252 265 255 244 251 241 233 246 256 259 279 284 256 239 236 226 152 152 177 219 168 156 146 127 113 105 103 89 72 69 67 63 67 74 68 228 243 255 223 182 176 184 186 187 188 184 180 174 170 170 170 170 166 164 169 172 170 170 166 164 166 162 159 164 166 166 166 160 156 155 155 156 152 147 140 128 119 113 111 115 114 109 107 105 101 100 97 95 93 89 86 84 82 82 82
224 243 237 242 249 244 247 247 243 251 262 252 249 345 262 247 256 232 170 167 177 143 112 129 126 117 121 134 129 112 88 66 67 68 61 61 40 9 196 240 230 176 170 185 187 192 195 190 189 184 171 168 171 170 168 166 169 173 173 173 171 169 170 167 164 167 170 171 173 170 166 165 165 165 166 165 158 144 136 131 130 129 124 120 119 117 111 106 103 101 99 95 92 91 89 87 86
219 238 242 234 241 251 253 259 260 270 287 266 231 228 247 235 273 275 113 127 153 138 113 109 117 128 139 136 115 97 84 69 64 64 59 59 45 26 29 310 233 164 169 181 180 191 200 189 199 211 183 168 170 171 169 168 170 173 174 175 175 174 173 170 168 171 173 174 178 177 174 173 173 172 173 174 165 159 162 157 148 138 135 135 129 124 121 117 114 113 109 104 99 94 87 82 83
236 231 242 231 226 243 254 273 282 295 304 279 238 244 258 180 249 192 119 133 157 147 138 138 145 149 138 116 101 90 81 75 67 58 58 60 58 51 37 4 28 121 146 167 173 190 206 185 189 215 208 173 168 171 171 170 171 173 176 178 178 178 177 174 172 174 177 178 180 182 181 177 176 176 179 179 170 169 176 169 161 155 149 147 136 130 131 128 126 124 119 112 104 98 96 91 85
322 258 248 250 245 245 253 267 268 268 268 262 238 240 239 157 205 179 161 183 175 153 158 163 155 141 126 112 102 93 82 81 77 62 56 56 58 66 59 30 43 94 129 165 181 193 210 195 185 205 210 180 169 174 175 173 173 174 177 178 179 180 180 179 177 176 178 182 183 184 186 182 180 180 184 185 177 178 182 173 171 170 162 160 150 147 152 143 137 137 132 125 123 123 120 115 103
289 267 247 240 244 244 251 265 252 243 254 255 239 240 237 229 208 177 190 205 177 164 175 164 146 135 125 110 98 95 91 90 90 79 66 57 55 63 64 58 52 64 139 173 189 198 211 211 200 203 199 179 170 174 176 175 174 176 179 179 182 182 180 182 183 178 177 182 185 184 187 188 184 182 188 190 182 185 188 179 182 182 174 173 167 164 165 155 152 154 147 144 147 143 128 120 123
254 271 295 284 254 248 239 250 256 254 262 261 254 253 248 252 244 187 194 200 184 184 184 163 155 148 126 113 109 104 100 95 93 90 81 70 67 66 62 68 90 115 150 154 167 185 200 210 211 206 196 188 179 172 174 177 175 176 179 181 183 183 181 181 184 181 177 181 186 185 189 195 191 186 191 194 188 191 195 188 191 193 186 185 180 178 177 167 166 165 160 164 163 151 145 148 151
230 240 269 273 271 271 249 243 251 255 262 268 267 266 268 284 304 190 195 196 194 199 188 171 168 151 124 120 121 110 105 102 96 95 91 82 79 71 54 53 75 86 91 130 159 170 182 207 208 187 183 201 199 174 169 174 175 177 178 182 186 186 183 180 183 182 173 179 188 188 192 198 197 194 195 198 196 196 199 197 197 198 195 194 190 189 187 179 180 178 172 177 173 163 167 173 168
247 230 242 255 255 258 262 260 256 258 265 273 275 275 282 302 360 285 216 195 184 233 218 184 161 138 123 122 123 112 106 104 100 104 105 98 96 94 78 65 69 66 56 65 156 172 171 180 178 161 164 186 208 192 174 171 174 175 172 177 183 185 184 184 194 194 172 176 186 188 200 207 202 200 200 201 202 202 205 203 201 203 203 200 197 197 195 188 190 188 182 185 182 174 179 179 175
293 282 273 284 285 278 280 273 272 278 282 294 297 295 299 227 61 34 266 182 153 237 238 181 139 125 117 115 118 116 111 108 107 108 110 111 111 108 101 89 84 77 60 41 37 74 104 129 146 148 151 161 175 192 195 182 177 170 166 175 182 183 185 185 195 200 189 190 193 192 204 216 212 207 206 207 208 209 211 208 206 207 206 205 203 201 199 195 196 196 191 194 191 183 186 186 181
Height
756 757 756 757 756 757 755 753 766 761 759 768 753 745 732 708 703 706 709 708 712 705 698 704 702 704 709 714 721 725 725 728 733 738 756 750 736 742 741 743 748 751 755 756 759 761 764 766 768 769 770 771 773 774 776 778 779 781 783 785 786 788 789 791 793 794 795 796 798 798 800 800 801 802 803 804 804 805 806 807 807 808 809 810 811 811 812 812 813 814 814 815 815 815 816 816 817
757 757 756 758 755 759 755 750 769 764 760 768 748 738 724 704 705 712 712 708 709 706 700 702 704 705 707 708 710 722 730 726 724 732 742 739 739 744 743 747 748 751 755 756 759 761 764 766 768 770 771 772 773 775 776 778 780 782 784 786 787 789 790 792 793 795 796 797 799 800 801 801 803 803 804 805 805 806 807 808 808 809 810 811 812 812 813 814 814 815 815 815 815 816 817 817 818
757 757 756 758 754 756 754 751 768 767 763 764 743 723 712 709 710 710 707 703 703 704 705 705 708 708 710 717 716 728 738 728 724 729 736 739 740 744 747 748 748 752 754 757 760 761 765 766 768 770 771 773 774 776 777 779 781 783 784 786 788 789 791 792 794 795 797 798 799 801 802 802 803 804 805 806 806 807 808 809 810 810 811 812 812 813 814 815 815 816 816 816 816 817 817 818 818
757 757 755 755 754 756 758 760 763 763 764 756 740 714 703 709 704 704 704 703 704 705 709 709 715 710 716 731 725 729 739 731 727 730 736 739 739 745 747 748 750 753 754 758 760 762 765 766 769 770 772 773 775 776 778 780 781 783 785 786 788 790 791 793 795 796 797 799 800 801 802 803 804 805 806 807 808 808 809 810 811 811 812 813 813 814 815 815 816 816 816 817 817 817 818 819 819
757 757 755 754 758 756 756 760 755 758 759 746 737 713 701 706 703 706 706 706 706 707 710 712 720 714 720 732 727 734 738 731 730 730 736 739 741 746 747 749 751 753 756 758 760 763 765 767 769 770 772 774 775 777 779 781 782 784 786 787 789 790 792 793 795 796 798 800 800 802 803 804 805 806 807 808 809 809 810 811 811 812 812 813 814 814 815 816 817 817 817 817 818 818 819 819 820
756 756 753 752 754 750 756 762 756 754 744 732 732 716 707 709 707 710 709 709 707 708 709 712 719 720 730 731 728 735 733 733 735 733 737 740 743 746 748 750 752 755 757 759 761 763 765 768 769 771 773 774 776 778 780 781 783 785 786 788 789 790 792 794 796 797 798 800 801 802 803 805 805 806 807 808 809 810 811 811 812 812 813 814 814 815 815 816 817 818 818 818 818 819 819 820 820
756 755 752 755 753 751 764 765 755 749 732 721 722 714 709 709 711 713 712 714 713 710 709 712 713 725 741 733 733 735 730 733 733 736 738 741 744 746 748 750 753 756 757 760 761 763 766 768 769 772 773 775 777 778 781 782 784 786 787 789 790 791 793 794 796 798 799 800 802 803 804 805 806 807 808 809 810 810 811 812 813 813 814 814 815 815 816 817 817 818 818 818 819 819 820 820 821
755 755 750 757 760 755 763 760 750 743 727 714 709 707 709 710 713 715 715 716 718 715 712 713 711 733 747 734 743 740 731 734 733 739 740 742 745 746 749 750 753 756 758 760 761 764 766 769 771 773 774 776 778 780 782 783 785 786 788 789 791 792 793 795 797 798 800 801 802 803 805 806 807 808 809 809 810 811 812 812 813 814 815 815 816 816 817 817 818 818 818 819 820 820 821 820 821
752 754 752 757 762 757 757 754 745 736 724 715 706 704 707 709 713 718 719 716 716 715 713 713 713 736 748 741 749 740 733 738 737 742 742 745 746 747 750 751 754 755 758 760 761 764 766 770 771 773 775 777 779 781 782 784 786 787 789 790 792 793 795 796 798 799 800 801 803 804 805 806 807 808 809 810 811 811 812 813 814 815 815 816 816 817 818 818 818 818 819 819 820 821 821 821 822
750 752 754 758 760 761 758 750 740 731 721 712 705 701 704 707 712 717 720 718 712 712 711 710 717 734 746 751 753 743 742 745 743 745 745 747 747 749 751 752 755 755 759 760 762 765 767 770 772 775 776 778 780 781 783 784 786 788 789 791 793 794 796 798 799 800 801 802 803 804 805 807 808 808 810 810 811 812 813 814 814 815 816 816 817 817 818 818 819 819 819 820 821 821 822 822 822
754 750 751 760 763 763 758 747 737 725 714 706 701 700 704 708 714 717 718 718 710 711 711 713 725 735 747 755 753 747 745 749 752 750 746 747 747 749 751 753 756 757 760 761 764 766 768 771 773 775 777 779 781 782 784 785 787 788 790 791 793 795 797 798 799 801 802 803 804 805 806 807 809 809 810 810 811 812 813 814 814 815 816 817 817 818 819 819 819 819 820 820 821 822 822 823 823
758 752 750 764 763 757 749 743 734 721 712 706 702 700 701 706 717 721 720 719 712 713 712 715 726 732 748 754 749 748 744 748 755 755 751 748 747 750 752 754 756 758 761 762 764 766 769 771 773 776 778 780 782 784 785 786 788 789 791 792 794 796 797 799 800 801 802 804 805 806 807 808 809 810 811 811 812 812 813 814 815 816 816 817 818 819 819 820 820 820 821 821 822 822 823 823 824
757 753 752 760 753 748 743 739 731 723 717 706 704 704 702 709 720 721 719 719 714 716 710 708 717 726 747 751 746 747 746 747 749 754 757 752 749 750 753 755 758 760 762 763 765 767 769 771 773 776 778 781 782 785 786 788 789 790 792 793 795 796 797 799 800 802 803 804 806 807 808 808 810 811 812 812 812 813 814 815 815 816 817 818 819 819 820 820 821 821 821 822 822 823 824 824 824
751 748 751 755 747 743 740 739 731 729 724 707 706 706 706 714 717 716 720 723 719 714 704 700 711 728 745 749 749 747 746 749 748 752 758 758 752 751 754 756 759 760 762 764 765 768 770 772 774 776 779 781 783 785 787 788 789 791 792 793 795 797 798 800 801 803 804 805 806 807 808 809 810 811 812 813 813 814 814 815 816 817 818 819 819 820 820 820 821 821 822 822 823 823 824 824 825
745 743 748 754 751 746 740 737 731 732 726 711 711 707 710 715 711 716 720 725 720 704 698 700 709 728 743 745 748 745 743 748 749 750 754 758 755 754 756 757 759 761 764 765 766 770 771 774 775 778 780 782 784 785 787 788 790 791 792 794 795 797 799 800 802 803 804 806 806 807 808 809 811 812 813 814 814 814 815 815 816 817 818 819 820 820 821 821 821 822 822 823 823 824 824 825 825
740 742 750 755 755 751 741 733 729 732 723 711 712 707 715 715 708 716 714 715 717 703 701 708 709 721 733 733 735 737 739 745 748 750 751 757 758 759 761 762 763 764 766 766 767 771 773 776 777 779 781 783 785 786 788 789 790 791 792 795 796 798 799 800 802 803 805 806 807 808 809 810 811 812 813 814 815 815 815 816 816 817 818 819 820 820 821 821 821 822 822 823 824 824 824 825 825
737 745 757 758 754 750 739 731 728 726 717 711 711 709 721 721 710 711 706 709 716 709 704 707 710 715 722 724 727 733 738 743 747 750 751 756 759 762 766 766 766 768 768 767 769 772 774 777 778 780 781 783 786 786 788 789 790 791 793 795 796 798 799 801 802 804 805 806 807 808 809 810 811 813 814 815 815 816 815 816 816 817 818 819 820 821 821 821 822 822 822 823 824 824 824 825 825
742 751 759 759 752 743 731 725 719 717 716 714 714 715 723 726 717 709 710 716 716 715 708 707 716 718 720 723 728 734 738 742 746 749 750 754 759 761 762 764 767 770 770 769 771 773 775 777 779 781 782 784 785 786 787 788 790 791 793 795 796 798 799 801 802 804 806 806 807 808 809 810 811 813 814 815 815 815 815 815 816 817 818 819 820 820 821 822 823 823 823 823 824 824 824 824 825
746 750 755 754 744 732 720 713 708 714 719 717 718 719 722 724 719 713 719 724 718 721 715 713 724 725 725 728 732 736 739 743 746 747 749 753 757 758 759 762 769 772 770 771 772 773 775 777 780 781 782 783 784 786 787 788 790 792 794 795 796 798 799 801 803 804 805 805 806 807 809 810 811 813 814 815 815 816 816 816 816 817 818 818 819 820 821 822 822 823 823 824 824 824 824 824 824
743 747 753 746 733 724 714 707 705 712 717 720 722 718 721 721 716 716 723 725 720 722 718 718 729 730 730 731 733 738 742 745 747 749 752 758 758 757 758 763 770 772 770 771 772 773 775 777 779 781 782 783 784 786 787 789 791 792 794 795 796 798 799 801 802 803 804 805 805 806 808 809 811 813 814 815 815 816 816 816 817 817 818 818 819 820 820 821 822 823 823 824 824 824 824 824 824
740 743 749 737 725 723 714 709 710 714 717 721 722 721 725 718 713 718 723 728 726 718 712 714 723 727 728 731 734 740 744 747 749 752 760 766 761 757 759 761 766 768 768 771 772 773 775 777 779 780 781 783 785 786 788 789 791 793 794 795 797 797 799 801 802 803 804 804 806 807 808 809 811 813 814 815 816 816 816 817 817 817 818 818 819 820 820 820 821 822 822 823 823 823 823 823 824
739 738 737 730 725 725 716 711 715 718 720 724 726 726 724 716 715 719 721 730 726 714 708 703 706 716 722 727 734 740 745 749 750 756 768 771 761 757 758 758 761 764 766 769 771 772 774 777 778 780 782 784 785 786 788 789 790 792 793 795 796 797 799 800 802 803 804 804 805 807 808 809 810 812 813 814 816 816 816 817 818 818 818 818 819 820 820 819 820 821 822 822 823 823 823 823 824
740 737 730 727 725 726 719 714 718 721 726 729 728 724 718 719 722 717 717 722 716 710 710 702 699 710 719 725 733 739 745 750 752 758 767 768 759 760 760 757 760 762 764 766 768 771 772 775 777 779 781 783 785 785 786 787 789 791 792 794 795 797 798 799 801 802 804 804 804 806 808 810 811 812 813 815 816 816 816 815 817 818 818 819 819 820 820 820 820 821 821 822 822 823 823 823 823
737 738 730 726 723 722 719 717 720 722 728 728 722 720 720 725 724 714 715 714 710 711 713 712 712 716 722 729 736 740 744 749 755 759 762 761 757 764 766 759 759 761 762 764 766 768 770 773 776 779 781 783 784 784 785 786 788 789 791 793 795 796 797 798 799 801 803 804 804 806 807 810 811 812 813 815 817 817 816 815 816 817 818 819 818 819 820 820 820 820 821 821 822 822 823 823 823
732 735 731 726 722 720 719 719 722 723 725 722 720 723 723 721 717 714 716 710 709 713 716 720 724 726 729 734 739 743 745 748 757 761 759 756 755 767 770 759 758 760 761 764 765 767 769 771 774 778 780 782 784 785 786 787 788 790 791 793 794 796 797 797 798 800 802 804 805 805 806 808 810 811 812 814 817 819 817 816 817 817 817 818 818 818 819 819 819 820 820 820 821 822 822 823 823
729 731 730 727 724 720 720 722 722 723 721 720 723 726 721 713 713 718 714 708 709 711 717 724 729 733 736 739 743 745 747 748 755 760 759 753 756 770 768 757 758 760 761 764 765 766 767 770 774 777 779 782 784 786 787 788 789 790 792 793 794 795 796 797 799 801 802 803 804 804 805 807 808 809 811 813 815 817 817 815 816 816 816 817 817 818 818 819 819 819 820 820 820 821 821 823 823
725 727 727 724 722 718 721 722 719 719 719 719 723 726 718 709 717 724 713 707 709 711 720 725 730 737 739 743 747 747 749 751 754 759 760 758 763 770 762 755 758 759 762 763 764 765 767 770 773 776 779 782 783 784 786 787 789 790 792 793 793 794 796 797 799 800 802 803 804 804 805 806 807 808 809 811 812 813 814 814 814 814 815 815 816 816 817 818 818 819 819 820 820 820 821 821 822
723 726 728 725 723 722 721 721 718 719 720 717 719 722 716 710 719 721 710 708 709 714 723 726 730 737 741 745 750 752 753 757 759 759 766 771 773 768 758 756 759 760 762 763 764 767 768 770 773 776 779 781 783 784 785 787 787 789 790 791 793 794 796 796 797 799 801 802 803 803 804 804 806 807 809 811 811 812 814 815 815 814 814 815 815 816 816 817 818 819 819 820 821 821 821 821 822
724 727 735 731 726 726 722 720 719 720 720 713 716 727 723 718 718 711 705 709 708 714 725 728 732 738 743 749 753 757 758 760 763 766 774 779 775 765 759 760 760 761 763 764 766 768 769 770 773 776 779 782 783 784 786 787 788 788 789 790 792 794 796 795 795 798 801 802 803 803 805 806 807 809 812 813 813 814 815 817 816 815 815 815 816 816 817 818 818 819 819 819 820 821 821 821 822
729 729 735 734 732 728 718 716 717 719 717 708 719 739 733 718 712 706 706 710 710 716 725 728 733 739 746 753 757 760 760 762 766 773 780 779 772 766 763 763 762 763 764 765 768 769 770 771 774 777 780 782 783 785 786 787 788 789 790 791 793 795 796 796 796 798 800 801 803 804 806 807 809 811 813 813 813 814 815 815 816 816 816 815 816 817 817 818 819 819 820 820 821 822 821 822 822
732 732 733 734 739 727 709 711 717 719 713 706 721 740 732 713 707 707 707 709 712 718 725 728 733 740 748 755 761 763 763 763 767 774 778 775 771 767 766 765 764 764 765 767 769 770 771 773 776 778 780 782 783 785 786 787 788 789 790 792 794 796 798 799 800 801 802 803 804 805 806 806 809 811 811 812 812 813 813 813 814 815 815 815 816 816 818 818 819 820 820 821 822 822 822 823 823
730 738 740 733 734 723 708 710 714 718 714 708 725 739 729 711 705 707 707 709 712 719 726 730 735 741 748 754 757 761 763 763 766 769 771 770 769 768 767 766 765 765 766 768 769 771 773 774 777 778 780 782 783 785 786 788 789 789 791 793 795 797 798 800 802 803 804 805 805 806 807 807 808 809 810 811 811 811 811 812 812 812 813 814 815 816 817 818 819 820 820 821 822 822 823 824 823
729 736 741 731 725 720 717 714 708 711 715 715 725 734 726 711 705 707 708 710 712 717 726 732 738 742 746 750 752 757 762 763 764 765 765 766 766 767 767 766 766 766 767 768 770 771 773 775 777 779 780 781 783 785 786 788 789 791 792 793 795 796 797 798 800 802 803 804 804 805 806 807 808 808 809 810 810 810 810 811 811 811 811 812 813 814 815 817 818 820 821 822 822 823 824 824 824
730 729 732 727 719 716 720 718 708 707 714 717 721 727 722 711 708 710 709 711 712 716 725 733 737 741 744 747 750 755 760 763 762 762 762 763 764 765 765 765 765 766 768 769 770 772 774 776 778 779 780 782 783 785 787 788 790 791 792 793 794 795 796 797 798 799 800 802 803 803 804 805 806 807 808 808 808 809 809 809 810 810 810 810 811 813 815 817 818 820 822 822 823 823 824 825 825
734 731 728 725 717 713 715 715 710 708 715 719 722 726 721 713 711 712 710 711 713 714 720 730 734 738 745 746 748 752 755 759 759 759 761 761 762 763 764 765 765 766 768 769 771 773 774 776 778 780 781 782 784 785 787 788 789 791 792 793 794 795 796 797 797 798 799 801 802 803 803 804 805 806 806 807 806 807 808 808 808 809 809 809 810 812 814 816 818 820 820 820 821 822 823 824 825
733 728 722 723 720 716 711 709 707 708 719 723 723 725 720 715 712 710 709 709 714 715 714 723 731 738 746 747 747 749 752 754 754 756 759 760 761 762 763 764 765 767 768 769 771 773 775 777 778 780 781 782 784 786 787 788 789 791 791 793 794 795 796 797 797 798 799 800 801 802 803 804 805 805 805 806 806 806 807 807 807 808 808 808 810 811 814 815 817 818 818 818 819 820 822 823 824
731 727 721 720 722 719 710 709 708 707 720 724 719 721 717 713 711 707 707 709 714 718 716 720 727 735 741 744 745 746 749 750 750 753 755 758 760 760 762 764 766 767 768 769 772 774 776 778 778 779 781 782 783 785 787 788 789 790 791 792 794 795 796 797 797 798 799 800 801 802 803 804 805 805 805 806 806 806 806 806 807 807 807 808 810 811 813 814 816 817 817 818 819 819 821 823 823
734 733 729 725 724 718 710 712 710 708 724 726 719 722 716 711 713 707 706 711 715 720 722 721 722 727 730 734 739 742 746 747 748 750 752 755 758 759 761 763 766 767 768 770 773 776 777 778 778 779 780 781 783 784 786 787 788 790 791 792 793 794 795 796 797 799 800 800 801 802 803 804 804 805 805 805 806 806 806 806 806 807 807 808 810 811 813 813 815 816 817 818 819 819 820 822 822
738 736 735 736 727 717 716 719 714 713 728 731 724 726 721 712 710 708 709 713 713 716 721 720 720 723 725 728 735 739 743 745 746 748 750 752 755 758 760 762 764 767 768 771 774 776 778 778 778 778 780 781 782 784 785 786 788 789 790 791 792 794 795 796 798 799 800 801 802 803 803 804 804 804 805 805 805 805 806 806 806 807 808 809 810 812 812 813 815 816 817 818 818 820 820 821 821
739 738 740 740 727 721 727 726 720 718 724 730 729 730 727 716 710 712 713 712 711 715 719 717 717 721 722 724 730 735 740 743 745 747 748 750 753 756 760 761 762 764 767 770 773 776 777 777 777 777 779 780 781 783 784 785 787 789 790 791 792 794 796 797 799 800 801 802 802 803 803 804 804 804 804 805 805 805 806 806 807 808 809 810 811 812 812 813 814 815 816 817 818 819 820 821 821
738 737 739 737 726 722 725 726 726 726 727 729 733 741 739 725 722 722 714 709 713 716 717 718 718 719 720 721 726 732 737 740 743 746 747 749 753 756 759 762 762 762 766 769 772 774 774 775 775 776 777 779 780 782 783 784 787 788 790 792 793 795 797 798 799 801 801 802 803 803 804 804 805 805 805 805 805 806 807 807 808 809 810 811 811 812 812 813 814 815 816 817 817 818 819 821 822
740 733 731 731 727 723 723 726 732 742 745 733 736 758 753 728 725 727 717 714 720 718 717 721 722 720 720 722 726 732 737 739 742 746 748 749 752 756 758 761 762 762 764 771 773 771 772 773 773 775 776 778 780 781 783 784 786 788 790 792 794 795 797 798 800 801 802 803 803 804 804 805 805 806 806 806 807 807 808 808 808 809 810 811 811 812 813 814 815 816 816 817 817 817 818 821 821
745 733 723 723 726 727 728 729 737 751 751 731 730 757 759 735 725 723 716 717 722 722 721 722 722 722 723 722 724 730 737 742 744 746 747 748 751 754 757 759 762 762 764 772 774 769 769 770 771 773 775 777 779 781 782 784 785 788 790 792 794 795 796 798 800 801 802 803 804 804 805 805 806 806 807 807 808 808 808 809 809 809 810 811 812 812 813 814 815 816 817 817 818 817 818 820 822
744 731 723 724 725 729 730 730 738 742 738 732 730 742 755 749 732 719 714 718 722 725 725 722 721 722 723 724 724 726 732 739 744 745 745 747 749 752 755 758 762 763 767 774 773 766 766 768 769 772 774 776 778 780 782 784 785 787 790 792 794 795 796 798 800 801 802 803 804 805 805 806 807 807 808 808 809 809 809 810 810 810 811 812 812 813 814 815 815 817 817 818 819 819 819 820 821
734 724 724 725 724 727 726 729 735 734 739 748 737 734 754 756 734 719 717 722 728 728 726 724 721 720 722 723 724 725 728 734 740 744 745 746 749 751 753 759 764 767 770 773 768 763 764 766 768 770 772 774 776 779 781 783 785 786 789 791 793 795 797 798 800 801 803 804 804 805 806 807 808 808 809 809 810 810 811 811 811 811 812 812 813 814 815 816 817 818 818 819 819 819 820 820 821
724 722 725 726 725 725 725 729 733 737 752 760 743 736 755 758 736 724 725 728 732 729 725 725 722 720 722 724 726 728 730 733 736 739 741 744 747 750 752 757 764 768 770 767 762 761 763 764 766 769 770 773 775 777 780 782 784 786 787 790 792 794 796 798 800 801 803 804 805 806 807 808 808 809 809 810 810 811 811 812 812 813 813 814 814 815 816 817 818 818 819 819 820 820 820 820 821
721 726 730 731 730 725 728 732 734 751 764 758 743 735 748 758 742 726 725 727 727 726 725 726 725 724 726 728 730 731 732 734 735 736 738 741 744 746 749 751 756 762 764 760 757 759 761 762 764 766 768 771 773 775 778 780 783 785 786 788 790 793 795 797 799 801 803 804 805 807 808 809 809 809 810 810 811 811 812 813 813 814 814 815 815 816 817 817 818 819 819 820 820 820 821 821 822
722 729 734 740 739 735 741 742 744 765 770 751 738 731 740 758 749 729 724 721 721 724 725 728 729 729 731 732 732 733 734 736 737 739 741 743 745 745 746 746 748 752 754 754 755 758 759 761 762 764 766 768 771 774 776 779 782 784 785 787 789 792 794 795 798 800 802 804 805 807 808 809 809 810 811 811 812 812 812 813 814 814 815 815 816 817 817 818 818 819 819 820 821 821 821 822 822
727 733 740 754 758 758 766 765 761 770 763 743 737 738 744 749 739 728 725 721 721 722 721 725 729 732 734 735 735 736 738 739 740 743 746 746 747 746 745 745 745 746 749 751 755 757 758 759 759 761 763 765 769 772 774 777 780 783 784 786 789 791 793 794 796 800 802 804 805 806 807 808 809 810 811 812 812 813 813 814 814 815 815 816 817 818 818 819 819 819 820 820 821 822 822 823 823
732 735 742 758 768 777 783 777 771 770 759 740 734 745 753 746 732 722 720 721 720 719 720 724 728 733 736 735 735 737 739 742 744 746 748 748 747 746 745 745 745 745 748 751 754 755 757 759 762 763 762 763 767 770 773 776 779 782 784 786 788 790 792 794 796 798 801 803 805 806 807 808 808 809 810 811 812 813 814 815 815 816 816 817 818 818 819 820 820 820 821 821 822 822 823 823 824
727 724 732 750 760 772 780 776 772 769 760 745 739 750 756 750 740 723 716 719 719 720 724 727 731 734 735 734 735 739 742 745 746 746 747 748 747 746 746 745 745 746 749 751 753 755 757 760 766 769 766 763 766 769 772 774 777 780 783 785 787 790 791 793 795 798 800 802 804 806 807 808 808 809 810 811 812 813 814 815 816 816 817 817 818 819 820 820 821 821 821 822 822 823 823 824 824
723 716 729 745 745 751 762 763 761 762 765 757 750 750 742 738 736 721 718 724 721 724 728 730 735 735 735 739 739 741 745 746 747 747 747 747 747 747 747 747 747 748 750 752 754 756 757 760 765 771 771 766 765 769 771 774 776 779 781 784 787 789 791 793 795 798 800 802 804 806 807 808 809 810 810 811 812 813 814 814 815 816 817 818 818 819 820 820 821 821 822 822 823 823 824 824 825
727 726 736 735 727 735 753 760 752 756 771 764 750 749 739 737 738 724 722 728 724 728 732 732 736 736 738 743 742 744 747 747 749 749 749 748 747 748 749 749 749 750 752 754 755 757 758 760 763 768 771 767 766 769 772 774 776 779 781 784 786 789 791 793 795 797 799 802 804 805 807 808 809 810 811 812 813 813 814 814 815 816 817 818 818 819 820 820 821 821 821 822 823 823 824 824 825
730 735 730 722 724 730 743 761 762 764 775 762 747 750 747 746 745 729 725 730 727 729 731 732 736 739 742 745 745 747 748 749 751 751 751 751 749 750 750 751 752 753 754 755 757 758 759 761 762 764 766 765 765 768 771 774 776 779 781 783 786 789 791 793 795 796 799 802 804 805 807 808 809 810 811 812 814 814 815 815 816 816 816 817 818 819 819 820 820 821 821 822 822 823 823 824 824
723 727 718 722 742 746 745 759 768 771 776 764 750 747 741 741 741 732 730 731 730 729 729 733 737 739 744 747 748 749 749 751 752 752 753 753 752 753 753 754 754 755 756 756 758 759 760 761 762 763 766 767 766 767 770 773 776 779 781 784 787 789 791 793 794 796 798 800 803 804 806 808 809 810 811 812 814 815 815 816 816 816 816 817 817 818 819 819 819 820 820 821 821 822 823 823 824
716 720 719 722 736 744 745 748 754 764 771 766 759 752 744 739 734 729 730 728 727 729 729 731 735 738 743 747 749 750 751 752 753 754 755 755 755 756 756 756 756 757 758 758 759 760 761 762 762 764 768 771 770 768 769 772 775 779 781 784 787 789 790 792 793 795 797 799 802 804 806 808 809 810 811 812 813 814 815 815 816 816 816 816 817 817 818 818 819 819 819 820 820 821 822 822 823
722 726 730 730 730 732 738 738 737 748 759 763 763 760 752 741 730 727 728 725 726 731 731 731 732 737 743 747 749 751 752 753 754 755 756 757 758 758 758 759 758 759 760 760 761 762 762 763 763 765 768 770 771 771 771 773 775 778 780 783 786 788 790 791 792 794 796 798 801 803 805 807 808 810 810 811 813 813 814 814 815 815 815 815 815 816 817 818 818 818 819 819 819 820 821 821 822
726 729 730 734 735 738 753 759 746 741 750 758 763 765 755 736 724 725 728 726 727 731 732 731 732 739 745 748 751 752 753 754 755 755 757 758 759 759 760 760 761 762 763 763 763 763 764 764 764 766 767 769 772 775 776 776 776 777 779 783 785 787 790 791 792 794 796 798 800 801 804 806 808 809 810 811 812 813 813 813 814 814 814 814 814 815 816 817 818 818 818 819 819 819 820 820 821